Torna al catalogo

STARLINK-33977

AttivoComunicazioniVLEO
NORAD 64344·PAYLOAD·🇺🇸 United States

Lanciato Jun 13, 2025 da Vandenberg Space Force Base

Loading…

Prossimi Passaggi (prossime 24 ore)

TLE

AggiornatoSource: CelesTrak SupGP

Epoca: Sep 15, 2026, 03:16 UTC

1 64344C 25126A   26258.13659722 -.00032248  00000+0 -11216-2 0  2586
2 64344  70.0009 275.0270 0003183 268.6852  89.4881 15.29601647    14

Traccia STARLINK-33977 in tempo reale con AllMySat

Download on the App Store